| Date | Time | Temp. (oF) | Dew Point (oF) | Rel. Hum. (%) | Press. (in.) | Wind Dir. | Wind Speed (mph) | Hourly Rainfall (in.) |
|
|---|---|---|---|---|---|---|---|---|---|
| 1 | 05/26 | 00:00 | 56 | 49 | 80 | 29.77 | NNE | 6 | 0.00 |
| 2 | 05/25 | 23:00 | 56 | 51 | 86 | 29.78 | NW | 3 | 0.00 |
| 3 | 05/25 | 22:00 | 54 | 52 | 94 | 29.79 | NW | 1 | 0.00 |
| 4 | 05/25 | 21:00 | 54 | 51 | 92 | 29.80 | ESE | 0 | 0.00 |
| 5 | 05/25 | 20:00 | 55 | 52 | 92 | 29.80 | SE | 1 | 0.00 |
| 6 | 05/25 | 19:00 | 55 | 52 | 91 | 29.80 | E | 3 | 0.00 |
| 7 | 05/25 | 18:00 | 56 | 53 | 90 | 29.80 | ESE | 3 | 0.00 |
| 8 | 05/25 | 17:00 | 55 | 52 | 90 | 29.81 | NE | 3 | 0.00 |
| 9 | 05/25 | 16:00 | 56 | 51 | 84 | 29.80 | ESE | 3 | 0.00 |
| 10 | 05/25 | 15:00 | 56 | 48 | 77 | 29.79 | N | 15 | 0.00 |
| 11 | 05/25 | 14:00 | 55 | 48 | 79 | 29.79 | WNW | 3 | 0.00 |
| 12 | 05/25 | 13:00 | 55 | 49 | 82 | 29.80 | NW | 4 | 0.00 |
| 13 | 05/25 | 12:00 | 54 | 49 | 86 | 29.79 | NNW | 6 | 0.00 |
| 14 | 05/25 | 11:00 | 52 | 50 | 95 | 29.80 | WNW | 8 | 0.00 |
| 15 | 05/25 | 10:00 | 51 | 49 | 94 | 29.81 | N | 7 | 0.00 |
| 16 | 05/25 | 09:00 | 51 | 50 | 98 | 29.82 | NNW | 4 | 0.01 |
| 17 | 05/25 | 08:00 | 50 | 49 | 98 | 29.82 | N | 5 | 0.00 |
| 18 | 05/25 | 07:00 | 49 | 48 | 97 | 29.82 | WNW | 3 | 0.00 |
| 19 | 05/25 | 06:00 | 49 | 47 | 96 | 29.82 | NW | 3 | 0.00 |
| 20 | 05/25 | 05:00 | 48 | 47 | 97 | 29.82 | WNW | 2 | 0.00 |
| 21 | 05/25 | 04:00 | 48 | 47 | 97 | 29.83 | NNW | 2 | 0.00 |
| 22 | 05/25 | 03:00 | 48 | 46 | 95 | 29.84 | NW | 1 | 0.00 |
| 23 | 05/25 | 02:00 | 49 | 46 | 91 | 29.86 | NNW | 5 | 0.00 |
| 24 | 05/25 | 01:00 | 50 | 46 | 87 | 29.86 | N | 8 | 0.00 |